Погода в Бегишеве

Россия / Республика Татарстан     55°29′19″N   52°01′54″E
темп.,
°C
ветер,
м/с
пор.,
м/с
влажн.,
%
обл.,
%
осадки,
мм/ч
давл.,
гПа
погр.,
м
1 июля, пт
пт100:00+8с249696 0.0 1010135
03:00+8ссв2596100 0.0 1011247
06:00+9св348995 0.0 1012432
09:00+13всв457380 0.0 1012910
12:00+16всв4463100 0.0 10131260
15:00+18всв466099 0.0 10131456
18:00+16св58815 0.4 1013504
21:00+12св49952 1.1 1014178
2 июля, сб
сб200:00+11св38951 0.0 1014133
03:00+10всв34945 0.0 101464
06:00+13св37855 0.0 1015238
09:00+18св566793 0.0 1015687
12:00+20св4559100 0.0 10141179
15:00+20ссв346082 0.0 10131358
18:00+19св257419 0.0 1012156
21:00+14вюв117650 0.0 101211
3 июля, вс
вс300:00+12св11815 0.0 101211
03:00+12в11830 0.0 101110
06:00+16св23760 0.0 1011151
09:00+20св45655 0.0 1011716
12:00+22св445546 0.0 10112025
15:00+19ссв5772100 0.2 1010332
18:00+17ссв71185100 0.9 1010599
21:00+12ссв35900 0.9 101193
4 июля, пн
пн400:00+11с39910 0.0 1011186
03:00+10с41093100 0.0 1011269
06:00+12ссв6118797 0.0 1012502
09:00+17св79695 0.0 10121122
12:00+19ссв795870 0.1 10132024
15:00+19ссв696397 0.1 10131164
18:00+18ссв377147 0.0 1013261
21:00+15с1267100 0.0 101413
5 июля, вт
вт500:00+15зсз2265100 0.0 101416
03:00+14сз3572100 0.0 1014112
06:00+15ссз3879100 0.0 1015245
09:00+19с466463 0.0 1015585
12:00+22ссз465270 0.0 10151648
15:00+24ссз355189 0.0 10141834
18:00+21зсз357471 0.0 1014129
21:00+17з22845 0.0 101418